Regional Weather Roundup
Issued by NWS

Home | Current Version | Previous Version | Graphics & Text | Print | Product List | Glossary On
Versions: 1 2 3 4 5 6 7 8 9 10 11 12 13 14 15 16 17 18 19 20 21 22 23 24 25 26 27 28 29 30 31 32 33 34 35 36 37 38 39 40 41 42 43 44 45 46 47 48 49 50
000
ASUS43 KOAX 250810
RWRNE

WEATHER ROUNDUP FOR NEBRASKA
NATIONAL WEATHER SERVICE OMAHA NE
200 AM CST SUN FEB 25 2018

NOTES: SATELLITE DATA IS BEING USED TO AUGMENT CLOUD COVER ABOVE
       12000 FEET.
       "FAIR" INDICATES FEW OR NO CLOUDS BELOW 12,000 FEET WITH NO
       SIGNIFICANT WEATHER AND/OR OBSTRUCTIONS TO VISIBILITY.


NEZ001>004-019>022-054>056-250900-
NEBRASKA PANHANDLE

CITY           SKY/WX    TMP DP  RH WIND       PRES   REMARKS
SCOTTSBLUFF    CLOUDY    26  14  60 NW8       29.82R WCI  18
ALLIANCE       CLOUDY    21  12  68 W15       29.79R WCI   8
CHADRON        CLOUDY     8   2  76 SW3       29.80R
GORDON         FAIR      15   4  63 W10       29.76S WCI   2
KIMBALL        CLOUDY    24  11  57 W16       29.81S WCI  11
SIDNEY         CLOUDY    27  10  49 W15       29.83S WCI  15
$$

NEZ057>060-069>072-079>082-250900-
SOUTHWEST NEBRASKA

CITY           SKY/WX    TMP DP  RH WIND       PRES   REMARKS
NORTH PLATTE   CLEAR      8   4  83 NW3       29.86S
IMPERIAL       MOCLDY    24  16  71 SW7       29.86F WCI  16
LEXINGTON      CLEAR     19  14  82 W5        29.89R WCI  12
MCCOOK         PTCLDY    24  15  68 W8        29.91R WCI  15
OGALLALA       PTCLDY    19  12  74 W8        29.84F WCI   9
$$

NEZ005>010-023>029-035>040-094-250900-
NORTH CENTRAL NEBRASKA

CITY           SKY/WX    TMP DP  RH WIND       PRES   REMARKS
VALENTINE      CLEAR     16   7  67 W13       29.77R WCI   2
AINSWORTH      CLEAR     20  11  69 W14       29.78R WCI   6
BROKEN BOW     CLEAR     13   4  67 W9        29.82F WCI   1
O`NEILL        CLEAR     18  11  73 SW13      29.79R WCI   5
ORD            CLEAR     20  11  68 NW8       29.83S WCI  10
THEDFORD       CLEAR     21  11  66 W12       29.82S WCI   9
$$

NEZ041-046>049-061>064-073>077-083>087-250900-
SOUTH CENTRAL NEBRASKA

CITY           SKY/WX    TMP DP  RH WIND       PRES   REMARKS
GRAND ISLAND   CLEAR     22  14  71 W10       29.87S WCI  11
AURORA         CLEAR     20  14  76 W12       29.86S WCI   8
HASTINGS       CLEAR     21  13  71 W8        29.89R WCI  11
HEBRON         CLEAR     23  17  78 W3        29.92R
HOLDREGE       CLEAR     25  16  69 W10       29.89S WCI  14
KEARNEY        CLEAR     22  15  75 SW12      29.89R WCI  10
YORK           CLEAR     19  16  86 W9        29.88R WCI   9
$$

NEZ011>018-030>034-042>045-250900-
NORTHEAST NEBRASKA

CITY           SKY/WX    TMP DP  RH WIND       PRES   REMARKS
NORFOLK        CLEAR     20  12  71 W10       29.81R WCI   9
ALBION         CLEAR     20  12  71 NW9       29.83F WCI  10
BLAIR          CLEAR     25  16  70 W6        29.85R WCI  18
COLUMBUS       CLEAR     19  13  77 W9        29.86R WCI   8
FREMONT        CLEAR     26  16  64 W14       29.86R WCI  14
TEKAMAH        CLEAR     14  10  84 SW7       29.85R WCI   4
WAYNE          CLEAR     22  12  65 W15       29.79S WCI   9
$$

NEZ050>053-065>068-078-088>093-250900-
SOUTHEAST NEBRASKA

CITY           SKY/WX    TMP DP  RH WIND       PRES   REMARKS
LINCOLN        CLEAR     23  16  74 CALM      29.89F
OMAHA EPPLEY   CLEAR     25  16  68 W7        29.87R WCI  17
BEATRICE       CLEAR     23  19  83 SW6       29.92R WCI  16
FALLS CITY     CLEAR     28  20  71 W10       29.93R WCI  19
NEBRASKA CITY  CLEAR     27  22  82 W9        29.89R WCI  17
PLATTSMOUTH    CLEAR     25  19  78 W8        29.88R WCI  16
$$

NEZ044-045-051>053-067-250900-
OMAHA AREA

CITY           SKY/WX    TMP DP  RH WIND       PRES   REMARKS
OMAHA EPPLEY   CLEAR     25  16  68 W7        29.87R WCI  17
BLAIR          CLEAR     25  16  70 W6        29.85R WCI  18
FREMONT        CLEAR     26  16  64 W14       29.86R WCI  14
MILLARD        CLEAR     28  18  66 W10       29.86S WCI  18
OFFUTT AFB     CLEAR     24  17  74 W8        29.87R WCI  16
PLATTSMOUTH    CLEAR     25  19  78 W8        29.88R WCI  16
WAHOO          FAIR      23  15  71 W8        29.87S WCI  14
$$




USA.gov is the U.S. government's official web portal to all federal, state and local government web resources and services.